Seattle, WA
on Saturday, November 17, 2012

Saturday
Previous Day Next Day
Daily Summary
 ActualAverageRecord
Temperature
Mean Temperature °F 45°F  
Max Temperature 54°F 51°F 61°F (1965)
Min Temperature 43°F 40°F 23°F (1955)
Degree Days
Heating Degree Days 16 20  
Month to date heating degree days 286 308  
Since 1 July heating degree days 779 905  
Cooling Degree Days 0 0  
Month to date cooling degree days 0 0  
Year to date cooling degree days 177 189  
Moisture
Dew Point 40°F   
Average Humidity 73    
Maximum Humidity 92    
Minimum Humidity 54    
Precipitation
Precipitation 0.24 in 0.23 in 1.06 in (1982)
Month to date precipitation 2.42 3.65  
Year to date precipitation 35.55 29.22  
Snow
Snow 0.00 in in 4.60 in (1955)
Month to date snowfall 0.0  
Since 1 July snowfall 0.0  
Snow Depth 0.00 in   
Wind
Wind Speed 12 mph   
Max Wind Speed 24 mph   
Max Gust Speed 30 mph   
Visibility 9 miles   
Events Rain   

Key: T is trace of precipitation, MM is missing value
Source: NWS Daily Summary
Time(PST)TemperatureDew PointHumidity Pressure Visibility Wind DirectionWind SpeedGust SpeedPrecipitationEvents Conditions
12:53 AM 48.0°F 41.0°F 77% 29.70 in 10.0 miles East 8.1 mph - 0.01 in Rain Light Rain
1:53 AM 48.0°F 41.0°F 77% 29.67 in 10.0 miles SE 6.9 mph - 0.00 in Rain Light Rain
2:53 AM 50.0°F 39.0°F 66% 29.64 in 10.0 miles East 15.0 mph - 0.01 in Rain Light Rain
3:53 AM 50.0°F 39.0°F 66% 29.62 in 10.0 miles SSE 4.6 mph - 0.00 in   Overcast
4:53 AM 50.0°F 37.9°F 63% 29.60 in 10.0 miles SSE 6.9 mph - 0.00 in   Overcast
5:53 AM 51.1°F 37.0°F 59% 29.58 in 10.0 miles SE 12.7 mph - N/A   Overcast
6:53 AM 51.1°F 37.9°F 61% 29.58 in 10.0 miles SE 10.4 mph - N/A   Overcast
7:53 AM 51.1°F 37.9°F 61% 29.56 in 10.0 miles ESE 13.8 mph - 0.00 in Rain Light Rain
8:53 AM 51.1°F 37.9°F 61% 29.54 in 10.0 miles ESE 13.8 mph - 0.00 in   Overcast
9:53 AM 53.1°F 37.9°F 57% 29.53 in 10.0 miles ESE 17.3 mph - N/A   Overcast
10:53 AM 53.1°F 37.9°F 57% 29.51 in 10.0 miles ESE 12.7 mph - N/A   Overcast
11:34 AM 51.8°F 42.8°F 71% 29.50 in 10.0 miles West 12.7 mph 19.6 mph 0.00 in Rain Light Rain
11:42 AM 50.0°F 44.6°F 82% 29.51 in 6.0 miles WSW 13.8 mph 28.8 mph 0.00 in Rain Light Rain
11:53 AM 48.9°F 45.0°F 86% 29.54 in 6.0 miles SW 18.4 mph 26.5 mph 0.00 in Rain Light Rain
12:03 PM 48.2°F 44.6°F 87% 29.52 in 6.0 miles SW 11.5 mph 23.0 mph 0.01 in Rain Light Rain
12:48 PM 46.4°F 42.8°F 87% 29.54 in 6.0 miles SW 16.1 mph 23.0 mph 0.05 in Rain Light Rain
12:53 PM 46.9°F 42.1°F 83% 29.56 in 7.0 miles WSW 16.1 mph 24.2 mph 0.05 in Rain Light Rain
1:23 PM 46.4°F 42.8°F 87% 29.56 in 10.0 miles SW 15.0 mph - 0.00 in   Overcast
1:53 PM 45.0°F 41.0°F 86% 29.60 in 10.0 miles SW 11.5 mph - 0.01 in Rain Light Rain
2:00 PM 44.6°F 41.0°F 87% 29.58 in 9.0 miles SW 12.7 mph - 0.00 in Rain Light Rain
2:16 PM 44.6°F 42.8°F 93% 29.58 in 7.0 miles SSW 8.1 mph - 0.01 in Rain Light Rain
2:53 PM 45.0°F 42.1°F 90% 29.61 in 10.0 miles SSW 15.0 mph 19.6 mph 0.06 in Rain Light Rain
3:28 PM 44.6°F 41.0°F 87% 29.61 in 10.0 miles South 11.5 mph - 0.03 in Rain Light Rain
3:53 PM 44.1°F 41.0°F 89% 29.65 in 10.0 miles South 13.8 mph - 0.06 in Rain Light Rain
4:11 PM 44.6°F 39.2°F 81% 29.63 in 10.0 miles South 15.0 mph - 0.01 in Rain Light Rain
4:29 PM 44.6°F 39.2°F 81% 29.63 in 10.0 miles South 11.5 mph - 0.01 in Rain Light Rain
4:53 PM 44.1°F 39.0°F 82% 29.65 in 10.0 miles South 12.7 mph - 0.02 in   Overcast
5:53 PM 44.1°F 39.9°F 85% 29.67 in 10.0 miles SSE 6.9 mph 19.6 mph 0.00 in   Overcast
6:53 PM 43.0°F 39.0°F 86% 29.67 in 10.0 miles SSE 8.1 mph - N/A   Scattered Clouds
7:53 PM 43.0°F 37.9°F 82% 29.67 in 10.0 miles South 11.5 mph - N/A   Partly Cloudy
8:53 PM 43.0°F 37.9°F 82% 29.68 in 10.0 miles South 8.1 mph - 0.00 in Rain Light Rain
9:53 PM 43.0°F 39.0°F 86% 29.70 in 10.0 miles South 10.4 mph - 0.01 in Rain Light Rain
10:53 PM 43.0°F 37.9°F 82% 29.72 in 10.0 miles South 10.4 mph - 0.01 in   Overcast
11:53 PM 44.1°F 37.9°F 79% 29.73 in 10.0 miles South 18.4 mph 26.5 mph 0.00 in   Mostly Cloudy
Moon Phase
Nov. 17 Nov. 20 Nov. 28 Dec. 06 Dec. 13
Sunrise:07:17 AM (PST) Moon Rise:11:06 AM (PST)11/17
Sunset:04:30 PM (PST) Moon Set:08:48 PM (PST)11/17

Copyright © 2014 The Weather Underground, Inc.